owner,sensor,date,latitude,longitude,vertical_datum,wind_speed,wind_to_direction,wind_speed_of_gust,qcFlag 
TCOON,ioos:station:TCOON:009:1,2011-09-01T00:00:00Z,27.8398,-97.0727,0.0,4.7,105.0,7.0,'11111222,11111222,11111222' 
TCOON,ioos:station:TCOON:009:1,2011-09-01T01:00:00Z,27.8398,-97.0727,0.0,4.7,100.0,5.6,'11111222,11111222,11111222' 
TCOON,ioos:station:TCOON:009:1,2011-09-01T02:00:00Z,27.8398,-97.0727,0.0,3.6,90.0,7.1,'11111222,11111222,11111222' 
TCOON,ioos:station:TCOON:009:1,2011-09-01T03:00:00Z,27.8398,-97.0727,0.0,4.0,92.0,6.5,'11111222,11111222,11111222' 
TCOON,ioos:station:TCOON:009:1,2011-09-01T04:00:00Z,27.8398,-97.0727,0.0,4.7,91.0,7.0,'11111222,11111222,11111222' 
TCOON,ioos:station:TCOON:009:1,2011-09-01T05:00:00Z,27.8398,-97.0727,0.0,4.8,99.0,7.0,'11111222,11111222,11111222' 
TCOON,ioos:station:TCOON:009:1,2011-09-01T06:00:00Z,27.8398,-97.0727,0.0,5.1,104.0,6.2,'11111222,11111222,11111222' 
TCOON,ioos:station:TCOON:009:1,2011-09-01T07:00:00Z,27.8398,-97.0727,0.0,4.0,100.0,10.3,'11111222,11111222,11111222' 
TCOON,ioos:station:TCOON:009:1,2011-09-01T08:00:00Z,27.8398,-97.0727,0.0,3.8,107.0,6.1,'11111222,11111222,11111222' 
TCOON,ioos:station:TCOON:009:1,2011-09-01T09:00:00Z,27.8398,-97.0727,0.0,1.6,103.0,2.9,'11111222,11111222,11111222' 
TCOON,ioos:station:TCOON:009:1,2011-09-01T10:00:00Z,27.8398,-97.0727,0.0,1.3,118.0,2.4,'11111222,11111222,11111222' 
TCOON,ioos:station:TCOON:009:1,2011-09-01T11:00:00Z,27.8398,-97.0727,0.0,1.2,113.0,1.5,'11111222,11111222,11111222' 
TCOON,ioos:station:TCOON:009:1,2011-09-01T12:00:00Z,27.8398,-97.0727,0.0,3.9,52.0,5.2,'11111222,11111222,11111222' 
TCOON,ioos:station:TCOON:009:1,2011-09-01T13:00:00Z,27.8398,-97.0727,0.0,1.3,36.0,1.3,'11111222,11111222,11111222' 
TCOON,ioos:station:TCOON:009:1,2011-09-01T14:00:00Z,27.8398,-97.0727,0.0,4.1,357.0,5.2,'11111222,11111222,11111222' 
TCOON,ioos:station:TCOON:009:1,2011-09-01T15:00:00Z,27.8398,-97.0727,0.0,4.8,38.0,6.5,'11111222,11111222,11111222' 
TCOON,ioos:station:TCOON:009:1,2011-09-01T16:00:00Z,27.8398,-97.0727,0.0,6.3,37.0,7.1,'11111222,11111222,11111222' 
TCOON,ioos:station:TCOON:009:1,2011-09-01T17:00:00Z,27.8398,-97.0727,0.0,6.6,36.0,11.2,'11111222,11111222,11111222' 
TCOON,ioos:station:TCOON:009:1,2011-09-01T18:00:00Z,27.8398,-97.0727,0.0,4.0,67.0,5.9,'11111222,11111222,11111222' 
TCOON,ioos:station:TCOON:009:1,2011-09-01T19:00:00Z,27.8398,-97.0727,0.0,5.2,75.0,7.3,'11111222,11111222,11111222' 
TCOON,ioos:station:TCOON:009:1,2011-09-01T20:00:00Z,27.8398,-97.0727,0.0,6.2,71.0,7.7,'11111222,11111222,11111222' 
TCOON,ioos:station:TCOON:009:1,2011-09-01T21:00:00Z,27.8398,-97.0727,0.0,5.6,89.0,7.2,'11111222,11111222,11111222' 
TCOON,ioos:station:TCOON:009:1,2011-09-01T22:00:00Z,27.8398,-97.0727,0.0,5.4,87.0,7.4,'11111222,11111222,11111222' 
TCOON,ioos:station:TCOON:009:1,2011-09-01T23:00:00Z,27.8398,-97.0727,0.0,5.1,96.0,6.3,'11111222,11111222,11111222' 
TCOON,ioos:station:TCOON:009:1,2011-09-02T00:00:00Z,27.8398,-97.0727,0.0,4.3,96.0,5.4,'11111222,11111222,11111222' 
TCOON,ioos:station:TCOON:009:1,2011-09-02T01:00:00Z,27.8398,-97.0727,0.0,3.5,93.0,6.6,'11111222,11111222,11111222' 
TCOON,ioos:station:TCOON:009:1,2011-09-02T02:00:00Z,27.8398,-97.0727,0.0,4.4,78.0,6.6,'11111222,11111222,11111222' 
TCOON,ioos:station:TCOON:009:1,2011-09-02T03:00:00Z,27.8398,-97.0727,0.0,4.7,75.0,5.2,'11111222,11111222,11111222' 
TCOON,ioos:station:TCOON:009:1,2011-09-02T04:00:00Z,27.8398,-97.0727,0.0,3.6,85.0,5.0,'11111222,11111222,11111222' 
TCOON,ioos:station:TCOON:009:1,2011-09-02T05:00:00Z,27.8398,-97.0727,0.0,3.8,76.0,4.7,'11111222,11111222,11111222' 
TCOON,ioos:station:TCOON:009:1,2011-09-02T06:00:00Z,27.8398,-97.0727,0.0,4.2,76.0,5.2,'11111222,11111222,11111222' 
TCOON,ioos:station:TCOON:009:1,2011-09-02T07:00:00Z,27.8398,-97.0727,0.0,2.0,80.0,2.4,'11111222,11111222,11111222' 
TCOON,ioos:station:TCOON:009:1,2011-09-02T08:00:00Z,27.8398,-97.0727,0.0,1.8,41.0,2.6,'11111222,11111222,11111222' 
TCOON,ioos:station:TCOON:009:1,2011-09-02T09:00:00Z,27.8398,-97.0727,0.0,1.7,50.0,2.3,'11111222,11111222,11111222' 
TCOON,ioos:station:TCOON:009:1,2011-09-02T10:00:00Z,27.8398,-97.0727,0.0,2.7,54.0,3.5,'11111222,11111222,11111222' 
TCOON,ioos:station:TCOON:009:1,2011-09-02T11:00:00Z,27.8398,-97.0727,0.0,3.9,31.0,5.0,'11111222,11111222,11111222' 
TCOON,ioos:station:TCOON:009:1,2011-09-02T12:00:00Z,27.8398,-97.0727,0.0,2.7,347.0,3.4,'11111222,11111222,11111222' 
TCOON,ioos:station:TCOON:009:1,2011-09-02T13:00:00Z,27.8398,-97.0727,0.0,4.0,351.0,5.1,'11111222,11111222,11111222' 
TCOON,ioos:station:TCOON:009:1,2011-09-02T14:00:00Z,27.8398,-97.0727,0.0,5.2,16.0,6.5,'11111222,11111222,11111222' 
TCOON,ioos:station:TCOON:009:1,2011-09-02T15:00:00Z,27.8398,-97.0727,0.0,7.3,10.0,8.5,'11111222,11111222,11111222' 
TCOON,ioos:station:TCOON:009:1,2011-09-02T16:00:00Z,27.8398,-97.0727,0.0,5.1,20.0,7.5,'11111222,11111222,11111222' 
TCOON,ioos:station:TCOON:009:1,2011-09-02T17:00:00Z,27.8398,-97.0727,0.0,5.6,20.0,7.0,'11111222,11111222,11111222' 
TCOON,ioos:station:TCOON:009:1,2011-09-02T18:00:00Z,27.8398,-97.0727,0.0,6.1,74.0,8.0,'11111222,11111222,11111222' 
TCOON,ioos:station:TCOON:009:1,2011-09-02T19:00:00Z,27.8398,-97.0727,0.0,5.8,87.0,8.4,'11111222,11111222,11111222' 
TCOON,ioos:station:TCOON:009:1,2011-09-02T20:00:00Z,27.8398,-97.0727,0.0,4.8,86.0,7.4,'11111222,11111222,11111222' 
TCOON,ioos:station:TCOON:009:1,2011-09-02T21:00:00Z,27.8398,-97.0727,0.0,4.9,100.0,7.4,'11111222,11111222,11111222' 
TCOON,ioos:station:TCOON:009:1,2011-09-02T22:00:00Z,27.8398,-97.0727,0.0,6.3,94.0,9.7,'11111222,11111222,11111222' 
TCOON,ioos:station:TCOON:009:1,2011-09-02T23:00:00Z,27.8398,-97.0727,0.0,8.0,88.0,11.1,'11111222,11111222,11111222' 
TCOON,ioos:station:TCOON:009:1,2011-09-03T00:00:00Z,27.8398,-97.0727,0.0,7.1,83.0,10.6,'11111222,11111222,11111222' 
TCOON,ioos:station:TCOON:009:1,2011-09-03T01:00:00Z,27.8398,-97.0727,0.0,6.8,78.0,9.5,'11111222,11111222,11111222' 
TCOON,ioos:station:TCOON:009:1,2011-09-03T02:00:00Z,27.8398,-97.0727,0.0,7.3,79.0,9.3,'11111222,11111222,11111222' 
TCOON,ioos:station:TCOON:009:1,2011-09-03T03:00:00Z,27.8398,-97.0727,0.0,5.2,92.0,7.2,'11111222,11111222,11111222' 
TCOON,ioos:station:TCOON:009:1,2011-09-03T04:00:00Z,27.8398,-97.0727,0.0,6.0,81.0,7.2,'11111222,11111222,11111222' 
TCOON,ioos:station:TCOON:009:1,2011-09-03T05:00:00Z,27.8398,-97.0727,0.0,6.9,70.0,8.7,'11111222,11111222,11111222' 
TCOON,ioos:station:TCOON:009:1,2011-09-03T06:00:00Z,27.8398,-97.0727,0.0,6.8,67.0,7.8,'11111222,11111222,11111222' 
TCOON,ioos:station:TCOON:009:1,2011-09-03T07:00:00Z,27.8398,-97.0727,0.0,6.8,61.0,7.4,'11111222,11111222,11111222' 
TCOON,ioos:station:TCOON:009:1,2011-09-03T08:00:00Z,27.8398,-97.0727,0.0,6.0,65.0,7.0,'11111222,11111222,11111222' 
TCOON,ioos:station:TCOON:009:1,2011-09-03T09:00:00Z,27.8398,-97.0727,0.0,3.1,20.0,4.5,'11111222,11111222,11111222' 
TCOON,ioos:station:TCOON:009:1,2011-09-03T10:00:00Z,27.8398,-97.0727,0.0,2.9,4.0,3.8,'11111222,11111222,11111222' 
TCOON,ioos:station:TCOON:009:1,2011-09-03T11:00:00Z,27.8398,-97.0727,0.0,3.2,349.0,4.5,'11111222,11111222,11111222' 
TCOON,ioos:station:TCOON:009:1,2011-09-03T12:00:00Z,27.8398,-97.0727,0.0,3.3,334.0,4.1,'11111222,11111222,11111222' 
TCOON,ioos:station:TCOON:009:1,2011-09-03T13:00:00Z,27.8398,-97.0727,0.0,3.7,323.0,4.1,'11111222,11111222,11111222' 
TCOON,ioos:station:TCOON:009:1,2011-09-03T14:00:00Z,27.8398,-97.0727,0.0,4.3,308.0,4.7,'11111222,11111222,11111222' 
TCOON,ioos:station:TCOON:009:1,2011-09-03T15:00:00Z,27.8398,-97.0727,0.0,6.6,323.0,8.1,'11111222,11111222,11111222' 
TCOON,ioos:station:TCOON:009:1,2011-09-03T16:00:00Z,27.8398,-97.0727,0.0,7.1,333.0,9.1,'11111222,11111222,11111222' 
TCOON,ioos:station:TCOON:009:1,2011-09-03T17:00:00Z,27.8398,-97.0727,0.0,6.9,319.0,9.6,'11111222,11111222,11111222' 
TCOON,ioos:station:TCOON:009:1,2011-09-03T18:00:00Z,27.8398,-97.0727,0.0,8.5,325.0,11.0,'11111222,11111222,11111222' 
TCOON,ioos:station:TCOON:009:1,2011-09-03T19:00:00Z,27.8398,-97.0727,0.0,6.8,344.0,8.2,'11111222,11111222,11111222' 
TCOON,ioos:station:TCOON:009:1,2011-09-03T20:00:00Z,27.8398,-97.0727,0.0,4.3,29.0,9.4,'11111222,11111222,11111222' 
TCOON,ioos:station:TCOON:009:1,2011-09-03T21:00:00Z,27.8398,-97.0727,0.0,5.7,43.0,6.7,'11111222,11111222,11111222' 
TCOON,ioos:station:TCOON:009:1,2011-09-03T22:00:00Z,27.8398,-97.0727,0.0,4.7,115.0,5.5,'11111222,11111222,11111222' 
TCOON,ioos:station:TCOON:009:1,2011-09-03T23:00:00Z,27.8398,-97.0727,0.0,4.6,155.0,6.2,'11111222,11111222,11111222' 
TCOON,ioos:station:TCOON:009:1,2011-09-04T00:00:00Z,27.8398,-97.0727,0.0,3.6,174.0,5.2,'11111222,11111222,11111222' 
TCOON,ioos:station:TCOON:009:1,2011-09-04T01:00:00Z,27.8398,-97.0727,0.0,3.0,194.0,3.9,'11111222,11111222,11111222' 
TCOON,ioos:station:TCOON:009:1,2011-09-04T02:00:00Z,27.8398,-97.0727,0.0,3.0,211.0,3.8,'11111222,11111222,11111222' 
TCOON,ioos:station:TCOON:009:1,2011-09-04T03:00:00Z,27.8398,-97.0727,0.0,1.9,339.0,2.0,'11111222,11111222,11111222' 
TCOON,ioos:station:TCOON:009:1,2011-09-04T04:00:00Z,27.8398,-97.0727,0.0,6.5,87.0,8.9,'11111222,11111222,11111222' 
TCOON,ioos:station:TCOON:009:1,2011-09-04T05:00:00Z,27.8398,-97.0727,0.0,2.5,102.0,4.0,'11111222,11111222,11111222' 
TCOON,ioos:station:TCOON:009:1,2011-09-04T06:00:00Z,27.8398,-97.0727,0.0,1.8,114.0,3.0,'11111222,11111222,11111222' 
TCOON,ioos:station:TCOON:009:1,2011-09-04T07:00:00Z,27.8398,-97.0727,0.0,0.8,168.0,0.9,'11111222,11111222,11111222' 
TCOON,ioos:station:TCOON:009:1,2011-09-04T08:00:00Z,27.8398,-97.0727,0.0,1.5,216.0,2.6,'11111222,11111222,11111222' 
TCOON,ioos:station:TCOON:009:1,2011-09-04T09:00:00Z,27.8398,-97.0727,0.0,2.5,221.0,2.7,'11111222,11111222,11111222' 
TCOON,ioos:station:TCOON:009:1,2011-09-04T10:00:00Z,27.8398,-97.0727,0.0,2.8,292.0,3.6,'11111222,11111222,11111222' 
TCOON,ioos:station:TCOON:009:1,2011-09-04T11:00:00Z,27.8398,-97.0727,0.0,3.3,288.0,4.2,'11111222,11111222,11111222' 
TCOON,ioos:station:TCOON:009:1,2011-09-04T12:00:00Z,27.8398,-97.0727,0.0,3.5,293.0,4.6,'11111222,11111222,11111222' 
TCOON,ioos:station:TCOON:009:1,2011-09-04T13:00:00Z,27.8398,-97.0727,0.0,4.8,324.0,5.7,'11111222,11111222,11111222' 
TCOON,ioos:station:TCOON:009:1,2011-09-04T14:00:00Z,27.8398,-97.0727,0.0,7.6,336.0,9.0,'11111222,11111222,11111222' 
TCOON,ioos:station:TCOON:009:1,2011-09-04T15:00:00Z,27.8398,-97.0727,0.0,7.3,334.0,9.9,'11111222,11111222,11111222' 
TCOON,ioos:station:TCOON:009:1,2011-09-04T16:00:00Z,27.8398,-97.0727,0.0,8.3,327.0,9.3,'11111222,11111222,11111222' 
TCOON,ioos:station:TCOON:009:1,2011-09-04T17:00:00Z,27.8398,-97.0727,0.0,8.0,340.0,11.0,'11111222,11111222,11111222' 
TCOON,ioos:station:TCOON:009:1,2011-09-04T18:00:00Z,27.8398,-97.0727,0.0,7.2,331.0,16.4,'11111222,11111222,11111222' 
TCOON,ioos:station:TCOON:009:1,2011-09-04T19:00:00Z,27.8398,-97.0727,0.0,8.2,342.0,12.1,'11111222,11111222,11111222' 
TCOON,ioos:station:TCOON:009:1,2011-09-04T20:00:00Z,27.8398,-97.0727,0.0,8.1,351.0,10.7,'11111222,11111222,11111222' 
TCOON,ioos:station:TCOON:009:1,2011-09-04T21:00:00Z,27.8398,-97.0727,0.0,7.1,3.0,9.9,'11111222,11111222,11111222' 
TCOON,ioos:station:TCOON:009:1,2011-09-04T22:00:00Z,27.8398,-97.0727,0.0,6.0,8.0,8.6,'11111222,11111222,11111222' 
TCOON,ioos:station:TCOON:009:1,2011-09-04T23:00:00Z,27.8398,-97.0727,0.0,6.1,6.0,9.8,'11111222,11111222,11111222' 
TCOON,ioos:station:TCOON:009:1,2011-09-05T00:00:00Z,27.8398,-97.0727,0.0,6.4,66.0,18.2,'11111222,11111222,11111222' 
TCOON,ioos:station:TCOON:009:1,2011-09-05T01:00:00Z,27.8398,-97.0727,0.0,7.6,59.0,9.9,'11111222,11111222,11111222' 
TCOON,ioos:station:TCOON:009:1,2011-09-05T02:00:00Z,27.8398,-97.0727,0.0,4.3,73.0,7.5,'11111222,11111222,11111222' 
TCOON,ioos:station:TCOON:009:1,2011-09-05T03:00:00Z,27.8398,-97.0727,0.0,2.6,63.0,3.1,'11111222,11111222,11111222' 
TCOON,ioos:station:TCOON:009:1,2011-09-05T04:00:00Z,27.8398,-97.0727,0.0,1.6,76.0,2.0,'11111222,11111222,11111222' 
TCOON,ioos:station:TCOON:009:1,2011-09-05T05:00:00Z,27.8398,-97.0727,0.0,0.4,272.0,0.5,'11111222,11111222,11111222' 
TCOON,ioos:station:TCOON:009:1,2011-09-05T06:00:00Z,27.8398,-97.0727,0.0,2.0,252.0,2.3,'11111222,11111222,11111222' 
TCOON,ioos:station:TCOON:009:1,2011-09-05T07:00:00Z,27.8398,-97.0727,0.0,3.5,283.0,3.9,'11111222,11111222,11111222' 
TCOON,ioos:station:TCOON:009:1,2011-09-05T08:00:00Z,27.8398,-97.0727,0.0,3.0,276.0,3.8,'11111222,11111222,11111222' 
TCOON,ioos:station:TCOON:009:1,2011-09-05T09:00:00Z,27.8398,-97.0727,0.0,5.4,337.0,6.1,'11111222,11111222,11111222' 
TCOON,ioos:station:TCOON:009:1,2011-09-05T10:00:00Z,27.8398,-97.0727,0.0,5.4,3.0,8.0,'11111222,11111222,11111222' 
TCOON,ioos:station:TCOON:009:1,2011-09-05T11:00:00Z,27.8398,-97.0727,0.0,4.8,1.0,5.9,'11111222,11111222,11111222' 
TCOON,ioos:station:TCOON:009:1,2011-09-05T12:00:00Z,27.8398,-97.0727,0.0,6.7,6.0,9.8,'11111222,11111222,11111222' 
TCOON,ioos:station:TCOON:009:1,2011-09-05T13:00:00Z,27.8398,-97.0727,0.0,7.0,4.0,9.4,'11111222,11111222,11111222' 
TCOON,ioos:station:TCOON:009:1,2011-09-05T14:00:00Z,27.8398,-97.0727,0.0,9.5,1.0,11.4,'11111222,11111222,11111222' 
TCOON,ioos:station:TCOON:009:1,2011-09-05T15:00:00Z,27.8398,-97.0727,0.0,8.7,16.0,11.7,'11111222,11111222,11111222' 
TCOON,ioos:station:TCOON:009:1,2011-09-05T16:00:00Z,27.8398,-97.0727,0.0,8.6,14.0,10.4,'11111222,11111222,11111222' 
TCOON,ioos:station:TCOON:009:1,2011-09-05T17:00:00Z,27.8398,-97.0727,0.0,6.8,7.0,8.5,'11111222,11111222,11111222' 
TCOON,ioos:station:TCOON:009:1,2011-09-05T18:00:00Z,27.8398,-97.0727,0.0,7.0,340.0,8.7,'11111222,11111222,11111222' 
TCOON,ioos:station:TCOON:009:1,2011-09-05T19:00:00Z,27.8398,-97.0727,0.0,7.4,342.0,8.8,'11111222,11111222,11111222' 
TCOON,ioos:station:TCOON:009:1,2011-09-05T20:00:00Z,27.8398,-97.0727,0.0,8.0,349.0,13.0,'11111222,11111222,11111222' 
TCOON,ioos:station:TCOON:009:1,2011-09-05T21:00:00Z,27.8398,-97.0727,0.0,7.4,18.0,8.8,'11111222,11111222,11111222' 
TCOON,ioos:station:TCOON:009:1,2011-09-05T22:00:00Z,27.8398,-97.0727,0.0,6.1,41.0,8.1,'11111222,11111222,11111222' 
TCOON,ioos:station:TCOON:009:1,2011-09-05T23:00:00Z,27.8398,-97.0727,0.0,5.2,22.0,7.0,'11111222,11111222,11111222' 
TCOON,ioos:station:TCOON:009:1,2011-09-06T00:00:00Z,27.8398,-97.0727,0.0,5.0,3.0,6.1,'11111222,11111222,11111222' 
TCOON,ioos:station:TCOON:009:1,2011-09-06T01:00:00Z,27.8398,-97.0727,0.0,5.2,5.0,6.8,'11111222,11111222,11111222' 
TCOON,ioos:station:TCOON:009:1,2011-09-06T02:00:00Z,27.8398,-97.0727,0.0,4.9,348.0,6.2,'11111222,11111222,11111222' 
TCOON,ioos:station:TCOON:009:1,2011-09-06T03:00:00Z,27.8398,-97.0727,0.0,4.3,351.0,5.4,'11111222,11111222,11111222' 
TCOON,ioos:station:TCOON:009:1,2011-09-06T04:00:00Z,27.8398,-97.0727,0.0,5.5,3.0,7.3,'11111222,11111222,11111222' 
TCOON,ioos:station:TCOON:009:1,2011-09-06T05:00:00Z,27.8398,-97.0727,0.0,4.4,3.0,5.9,'11111222,11111222,11111222' 
TCOON,ioos:station:TCOON:009:1,2011-09-06T06:00:00Z,27.8398,-97.0727,0.0,5.9,11.0,7.6,'11111222,11111222,11111222' 
TCOON,ioos:station:TCOON:009:1,2011-09-06T07:00:00Z,27.8398,-97.0727,0.0,6.9,28.0,8.4,'11111222,11111222,11111222' 
TCOON,ioos:station:TCOON:009:1,2011-09-06T08:00:00Z,27.8398,-97.0727,0.0,5.9,8.0,6.5,'11111222,11111222,11111222' 
TCOON,ioos:station:TCOON:009:1,2011-09-06T09:00:00Z,27.8398,-97.0727,0.0,5.5,9.0,7.2,'11111222,11111222,11111222' 
TCOON,ioos:station:TCOON:009:1,2011-09-06T10:00:00Z,27.8398,-97.0727,0.0,5.0,6.0,6.6,'11111222,11111222,11111222' 
TCOON,ioos:station:TCOON:009:1,2011-09-06T11:00:00Z,27.8398,-97.0727,0.0,4.0,6.0,5.6,'11111222,11111222,11111222' 
TCOON,ioos:station:TCOON:009:1,2011-09-06T12:00:00Z,27.8398,-97.0727,0.0,3.7,7.0,4.9,'11111222,11111222,11111222' 
TCOON,ioos:station:TCOON:009:1,2011-09-06T13:00:00Z,27.8398,-97.0727,0.0,4.6,7.0,5.6,'11111222,11111222,11111222' 
TCOON,ioos:station:TCOON:009:1,2011-09-06T14:00:00Z,27.8398,-97.0727,0.0,5.6,12.0,6.8,'11111222,11111222,11111222' 
TCOON,ioos:station:TCOON:009:1,2011-09-06T15:00:00Z,27.8398,-97.0727,0.0,5.9,13.0,6.6,'11111222,11111222,11111222' 
TCOON,ioos:station:TCOON:009:1,2011-09-06T16:00:00Z,27.8398,-97.0727,0.0,4.4,19.0,5.3,'11111222,11111222,11111222' 
TCOON,ioos:station:TCOON:009:1,2011-09-06T17:00:00Z,27.8398,-97.0727,0.0,6.5,38.0,7.9,'11111222,11111222,11111222' 
TCOON,ioos:station:TCOON:009:1,2011-09-06T18:00:00Z,27.8398,-97.0727,0.0,5.5,63.0,7.7,'11111222,11111222,11111222' 
TCOON,ioos:station:TCOON:009:1,2011-09-06T19:00:00Z,27.8398,-97.0727,0.0,5.7,74.0,7.3,'11111222,11111222,11111222' 
TCOON,ioos:station:TCOON:009:1,2011-09-06T20:00:00Z,27.8398,-97.0727,0.0,4.8,87.0,6.6,'11111222,11111222,11111222' 
TCOON,ioos:station:TCOON:009:1,2011-09-06T21:00:00Z,27.8398,-97.0727,0.0,5.2,87.0,6.0,'11111222,11111222,11111222' 
TCOON,ioos:station:TCOON:009:1,2011-09-06T22:00:00Z,27.8398,-97.0727,0.0,5.0,96.0,6.3,'11111222,11111222,11111222' 
TCOON,ioos:station:TCOON:009:1,2011-09-06T23:00:00Z,27.8398,-97.0727,0.0,4.1,102.0,7.2,'11111222,11111222,11111222' 
TCOON,ioos:station:TCOON:009:1,2011-09-07T00:00:00Z,27.8398,-97.0727,0.0,3.2,113.0,5.9,'11111222,11111222,11111222' 
TCOON,ioos:station:TCOON:009:1,2011-09-07T01:00:00Z,27.8398,-97.0727,0.0,3.1,126.0,4.2,'11111222,11111222,11111222' 
TCOON,ioos:station:TCOON:009:1,2011-09-07T02:00:00Z,27.8398,-97.0727,0.0,2.1,130.0,3.4,'11111222,11111222,11111222' 
TCOON,ioos:station:TCOON:009:1,2011-09-07T03:00:00Z,27.8398,-97.0727,0.0,2.5,126.0,4.0,'11111222,11111222,11111222' 
TCOON,ioos:station:TCOON:009:1,2011-09-07T04:00:00Z,27.8398,-97.0727,0.0,2.3,131.0,3.7,'11111222,11111222,11111222' 
TCOON,ioos:station:TCOON:009:1,2011-09-07T05:00:00Z,27.8398,-97.0727,0.0,2.0,118.0,3.3,'11111222,11111222,11111222' 
TCOON,ioos:station:TCOON:009:1,2011-09-07T06:00:00Z,27.8398,-97.0727,0.0,1.8,121.0,2.3,'11111222,11111222,11111222' 
TCOON,ioos:station:TCOON:009:1,2011-09-07T07:00:00Z,27.8398,-97.0727,0.0,1.4,141.0,1.9,'11111222,11111222,11111222' 
TCOON,ioos:station:TCOON:009:1,2011-09-07T08:00:00Z,27.8398,-97.0727,0.0,1.7,131.0,2.1,'11111222,11111222,11111222' 
TCOON,ioos:station:TCOON:009:1,2011-09-07T09:00:00Z,27.8398,-97.0727,0.0,1.2,130.0,1.9,'11111222,11111222,11111222' 
TCOON,ioos:station:TCOON:009:1,2011-09-07T10:00:00Z,27.8398,-97.0727,0.0,1.7,114.0,1.9,'11111222,11111222,11111222' 
TCOON,ioos:station:TCOON:009:1,2011-09-07T11:00:00Z,27.8398,-97.0727,0.0,1.6,357.0,2.0,'11111222,11111222,11111222' 
TCOON,ioos:station:TCOON:009:1,2011-09-07T12:00:00Z,27.8398,-97.0727,0.0,3.1,341.0,3.3,'11111222,11111222,11111222' 
TCOON,ioos:station:TCOON:009:1,2011-09-07T13:00:00Z,27.8398,-97.0727,0.0,2.6,353.0,3.2,'11111222,11111222,11111222' 
TCOON,ioos:station:TCOON:009:1,2011-09-07T14:00:00Z,27.8398,-97.0727,0.0,3.6,12.0,4.5,'11111222,11111222,11111222' 
TCOON,ioos:station:TCOON:009:1,2011-09-07T15:00:00Z,27.8398,-97.0727,0.0,4.6,357.0,5.3,'11111222,11111222,11111222' 
TCOON,ioos:station:TCOON:009:1,2011-09-07T16:00:00Z,27.8398,-97.0727,0.0,3.2,8.0,22.0,'11111222,11111222,11111222' 
TCOON,ioos:station:TCOON:009:1,2011-09-07T17:00:00Z,27.8398,-97.0727,0.0,2.8,80.0,4.8,'11111222,11111222,11111222' 
TCOON,ioos:station:TCOON:009:1,2011-09-07T18:00:00Z,27.8398,-97.0727,0.0,3.3,84.0,5.1,'11111222,11111222,11111222' 
TCOON,ioos:station:TCOON:009:1,2011-09-07T19:00:00Z,27.8398,-97.0727,0.0,3.7,77.0,5.8,'11111222,11111222,11111222' 
TCOON,ioos:station:TCOON:009:1,2011-09-07T20:00:00Z,27.8398,-97.0727,0.0,3.9,103.0,5.4,'11111222,11111222,11111222' 
TCOON,ioos:station:TCOON:009:1,2011-09-07T21:00:00Z,27.8398,-97.0727,0.0,5.4,98.0,7.6,'11111222,11111222,11111222' 
TCOON,ioos:station:TCOON:009:1,2011-09-07T22:00:00Z,27.8398,-97.0727,0.0,6.2,102.0,7.8,'11111222,11111222,11111222' 
TCOON,ioos:station:TCOON:009:1,2011-09-07T23:00:00Z,27.8398,-97.0727,0.0,5.4,108.0,6.3,'11111222,11111222,11111222' 
TCOON,ioos:station:TCOON:009:1,2011-09-08T00:00:00Z,27.8398,-97.0727,0.0,4.5,105.0,7.4,'11111222,11111222,11111222' 
TCOON,ioos:station:TCOON:009:1,2011-09-08T01:00:00Z,27.8398,-97.0727,0.0,5.3,105.0,6.3,'11111222,11111222,11111222' 
TCOON,ioos:station:TCOON:009:1,2011-09-08T02:00:00Z,27.8398,-97.0727,0.0,3.9,107.0,5.9,'11111222,11111222,11111222' 
TCOON,ioos:station:TCOON:009:1,2011-09-08T03:00:00Z,27.8398,-97.0727,0.0,4.8,102.0,7.6,'11111222,11111222,11111222' 
TCOON,ioos:station:TCOON:009:1,2011-09-08T04:00:00Z,27.8398,-97.0727,0.0,5.3,102.0,6.8,'11111222,11111222,11111222' 
TCOON,ioos:station:TCOON:009:1,2011-09-08T05:00:00Z,27.8398,-97.0727,0.0,3.5,99.0,5.1,'11111222,11111222,11111222' 
TCOON,ioos:station:TCOON:009:1,2011-09-08T06:00:00Z,27.8398,-97.0727,0.0,3.3,102.0,5.1,'11111222,11111222,11111222' 
TCOON,ioos:station:TCOON:009:1,2011-09-08T07:00:00Z,27.8398,-97.0727,0.0,3.2,109.0,4.1,'11111222,11111222,11111222' 
TCOON,ioos:station:TCOON:009:1,2011-09-08T08:00:00Z,27.8398,-97.0727,0.0,1.0,103.0,1.9,'11111222,11111222,11111222' 
TCOON,ioos:station:TCOON:009:1,2011-09-08T09:00:00Z,27.8398,-97.0727,0.0,3.1,324.0,3.7,'11111222,11111222,11111222' 
TCOON,ioos:station:TCOON:009:1,2011-09-08T10:00:00Z,27.8398,-97.0727,0.0,2.4,340.0,3.0,'11111222,11111222,11111222' 
TCOON,ioos:station:TCOON:009:1,2011-09-08T11:00:00Z,27.8398,-97.0727,0.0,3.5,346.0,4.1,'11111222,11111222,11111222' 
TCOON,ioos:station:TCOON:009:1,2011-09-08T12:00:00Z,27.8398,-97.0727,0.0,3.2,352.0,3.7,'11111222,11111222,11111222' 
TCOON,ioos:station:TCOON:009:1,2011-09-08T13:00:00Z,27.8398,-97.0727,0.0,3.8,355.0,4.8,'11111222,11111222,11111222' 
TCOON,ioos:station:TCOON:009:1,2011-09-08T14:00:00Z,27.8398,-97.0727,0.0,4.4,359.0,5.7,'11111222,11111222,11111222' 
TCOON,ioos:station:TCOON:009:1,2011-09-08T15:00:00Z,27.8398,-97.0727,0.0,5.1,354.0,6.4,'11111222,11111222,11111222' 
TCOON,ioos:station:TCOON:009:1,2011-09-08T16:00:00Z,27.8398,-97.0727,0.0,5.4,356.0,6.5,'11111222,11111222,11111222' 
TCOON,ioos:station:TCOON:009:1,2011-09-08T17:00:00Z,27.8398,-97.0727,0.0,4.5,8.0,7.3,'11111222,11111222,11111222' 
TCOON,ioos:station:TCOON:009:1,2011-09-08T18:00:00Z,27.8398,-97.0727,0.0,3.6,18.0,5.9,'11111222,11111222,11111222' 
TCOON,ioos:station:TCOON:009:1,2011-09-08T19:00:00Z,27.8398,-97.0727,0.0,4.0,75.0,4.4,'11111222,11111222,11111222' 
TCOON,ioos:station:TCOON:009:1,2011-09-08T20:00:00Z,27.8398,-97.0727,0.0,4.6,154.0,9.9,'11111222,11111222,11111222' 
TCOON,ioos:station:TCOON:009:1,2011-09-08T21:00:00Z,27.8398,-97.0727,0.0,4.1,147.0,7.1,'11111222,11111222,11111222' 
TCOON,ioos:station:TCOON:009:1,2011-09-08T22:00:00Z,27.8398,-97.0727,0.0,5.6,144.0,7.7,'11111222,11111222,11111222' 
TCOON,ioos:station:TCOON:009:1,2011-09-08T23:00:00Z,27.8398,-97.0727,0.0,4.0,146.0,7.0,'11111222,11111222,11111222' 
TCOON,ioos:station:TCOON:009:1,2011-09-09T00:00:00Z,27.8398,-97.0727,0.0,3.5,137.0,7.1,'11111222,11111222,11111222' 
TCOON,ioos:station:TCOON:009:1,2011-09-09T01:00:00Z,27.8398,-97.0727,0.0,3.0,162.0,4.4,'11111222,11111222,11111222' 
TCOON,ioos:station:TCOON:009:1,2011-09-09T02:00:00Z,27.8398,-97.0727,0.0,3.1,161.0,4.4,'11111222,11111222,11111222' 
TCOON,ioos:station:TCOON:009:1,2011-09-09T03:00:00Z,27.8398,-97.0727,0.0,2.6,153.0,5.0,'11111222,11111222,11111222' 
TCOON,ioos:station:TCOON:009:1,2011-09-09T04:00:00Z,27.8398,-97.0727,0.0,3.3,168.0,4.3,'11111222,11111222,11111222' 
TCOON,ioos:station:TCOON:009:1,2011-09-09T05:00:00Z,27.8398,-97.0727,0.0,1.9,154.0,2.6,'11111222,11111222,11111222' 
TCOON,ioos:station:TCOON:009:1,2011-09-09T06:00:00Z,27.8398,-97.0727,0.0,2.4,149.0,3.4,'11111222,11111222,11111222' 
TCOON,ioos:station:TCOON:009:1,2011-09-09T07:00:00Z,27.8398,-97.0727,0.0,1.2,149.0,2.3,'11111222,11111222,11111222' 
TCOON,ioos:station:TCOON:009:1,2011-09-09T08:00:00Z,27.8398,-97.0727,0.0,0.8,169.0,1.7,'11111222,11111222,11111222' 
TCOON,ioos:station:TCOON:009:1,2011-09-09T09:00:00Z,27.8398,-97.0727,0.0,1.3,203.0,1.5,'11111222,11111222,11111222' 
TCOON,ioos:station:TCOON:009:1,2011-09-09T10:00:00Z,27.8398,-97.0727,0.0,2.8,312.0,3.6,'11111222,11111222,11111222' 
TCOON,ioos:station:TCOON:009:1,2011-09-09T11:00:00Z,27.8398,-97.0727,0.0,2.2,324.0,2.9,'11111222,11111222,11111222' 
TCOON,ioos:station:TCOON:009:1,2011-09-09T12:00:00Z,27.8398,-97.0727,0.0,2.2,321.0,2.8,'11111222,11111222,11111222' 